Dyersburg, TN

12:09 AM CDT on July 21, 2017 (GMT -0500)
Dyersburg Municipal

Weather History for KDYR - November, 2013

Change the Weather History Date:

Wednesday, November 20, 2013

  Actual Average Record
Temperature  
Mean Temperature 46 °F -  
Max Temperature 60 °F 55 °F 73 °F (2003)
Min Temperature 33 °F 39 °F 24 °F (2014)
Degree Days  
Heating Degree Days 18    
Moisture  
Dew Point 28 °F    
Average Humidity 49    
Maximum Humidity 65    
Minimum Humidity 36    
Precipitation  
Precipitation 0.00 in - - ()
Sea Level Pressure  
Sea Level Pressure 30.17 in    
Wind  
Wind Speed 5 mph (ESE)    
Max Wind Speed 12 mph    
Max Gust Speed -    
Visibility 10 miles    
Events      
Averages and records for this station are not official NWS values.
T = Trace of Precipitation, MM = Missing Value Source: NWS Daily Summary

Daily Weather History Graph

Daily Weather History Graph

Search for Another Location

Airport or City:

Trip Planner

Search our weather history database for the weather conditions in past years. The results will help you decide how hot, cold, wet, or windy it might be!

Date:

Astronomy

Nov. 20, 2013 Rise Set
Actual Time 6:39 AM CST 4:46 PM CST
Civil Twilight 6:11 AM CST 5:14 PM CST
Nautical Twilight 5:40 AM CST 5:45 PM CST
Astronomical Twilight 5:10 AM CST 6:16 PM CST
Moon 7:29 PM CST (11/20) 9:04 AM CST (11/20)
Length of Visible Light 11h 02m
Length of Day
10h 07m
Waning Gibbous, 91% of the Moon is Illuminated
Nov 20
Waning Gibbous
Nov 25
Last Quarter
Dec 2
New
Dec 9
First Quarter
Dec 17
Full

Hourly Weather History & Observations

Time (CST) Temp. Windchill Dew Point Humidity Pressure Visibility Wind Dir Wind Speed Gust Speed Precip Events Conditions
12:15 AM 37.4 °F 33.8 °F 21.2 °F 52% 30.20 in 10.0 mi ENE 4.6 mph - N/A   Clear
12:35 AM 35.6 °F 32.8 °F 21.2 °F 56% 30.20 in 10.0 mi NE 3.5 mph - N/A   Clear
12:55 AM 35.6 °F 32.8 °F 21.2 °F 56% 30.21 in 10.0 mi NE 3.5 mph - N/A   Clear
1:15 AM 35.6 °F - 21.2 °F 56% 30.21 in 10.0 mi Calm Calm - N/A   Clear
1:35 AM 35.6 °F 31.7 °F 21.2 °F 56% 30.21 in 10.0 mi ENE 4.6 mph - N/A   Clear
1:55 AM 33.8 °F 28.6 °F 21.2 °F 60% 30.21 in 10.0 mi NE 5.8 mph - N/A   Clear
2:15 AM 33.8 °F 28.6 °F 21.2 °F 60% 30.20 in 10.0 mi ENE 5.8 mph - N/A   Clear
2:35 AM 35.6 °F 30.7 °F 21.2 °F 56% 30.20 in 10.0 mi NE 5.8 mph - N/A   Clear
2:55 AM 35.6 °F 31.7 °F 21.2 °F 56% 30.20 in 10.0 mi ENE 4.6 mph - N/A   Clear
3:15 AM 35.6 °F 29.9 °F 21.2 °F 56% 30.20 in 10.0 mi ENE 6.9 mph - N/A   Clear
3:35 AM 35.6 °F 29.9 °F 21.2 °F 56% 30.20 in 10.0 mi ENE 6.9 mph - N/A   Clear
3:55 AM 33.8 °F 30.8 °F 21.2 °F 60% 30.21 in 10.0 mi ENE 3.5 mph - N/A   Clear
4:15 AM 33.8 °F 30.8 °F 21.2 °F 60% 30.21 in 10.0 mi ENE 3.5 mph - N/A   Clear
4:35 AM 33.8 °F 29.6 °F 21.2 °F 60% 30.20 in 10.0 mi ENE 4.6 mph - N/A   Clear
4:55 AM 33.8 °F 30.8 °F 21.2 °F 60% 30.21 in 10.0 mi ENE 3.5 mph - N/A   Clear
5:15 AM 33.8 °F 29.6 °F 21.2 °F 60% 30.21 in 10.0 mi ENE 4.6 mph - N/A   Clear
5:35 AM 33.8 °F 29.6 °F 21.2 °F 60% 30.21 in 10.0 mi ENE 4.6 mph - N/A   Clear
5:55 AM 33.8 °F 29.6 °F 21.2 °F 60% 30.20 in 10.0 mi ENE 4.6 mph - N/A   Clear
6:15 AM 33.8 °F 30.8 °F 21.2 °F 60% 30.20 in 10.0 mi ENE 3.5 mph - N/A   Clear
6:35 AM 33.8 °F - 21.2 °F 60% 30.21 in 10.0 mi Calm Calm - N/A   Clear
6:55 AM 33.8 °F 29.6 °F 21.2 °F 60% 30.20 in 10.0 mi East 4.6 mph - N/A   Clear
7:15 AM 33.8 °F 30.8 °F 23.0 °F 65% 30.21 in 10.0 mi East 3.5 mph - N/A   Clear
7:35 AM 35.6 °F 32.8 °F 23.0 °F 60% 30.21 in 10.0 mi East 3.5 mph - N/A   Clear
7:55 AM 35.6 °F 32.8 °F 24.8 °F 65% 30.22 in 10.0 mi East 3.5 mph - N/A   Clear
8:15 AM 37.4 °F 32.8 °F 24.8 °F 60% 30.21 in 10.0 mi ESE 5.8 mph - N/A   Clear
8:35 AM 39.2 °F 34.2 °F 26.6 °F 61% 30.21 in 10.0 mi ESE 6.9 mph - N/A   Clear
8:55 AM 42.8 °F 38.6 °F 26.6 °F 53% 30.22 in 10.0 mi SE 6.9 mph - N/A   Clear
9:15 AM 44.6 °F 40.7 °F 26.6 °F 49% 30.21 in 10.0 mi SSE 6.9 mph - N/A   Clear
9:35 AM 44.6 °F 40.7 °F 28.4 °F 53% 30.21 in 10.0 mi SE 6.9 mph - N/A   Clear
9:55 AM 48.2 °F - 30.2 °F 50% 30.21 in 10.0 mi South 6.9 mph - N/A   Clear
10:15 AM 48.2 °F - 30.2 °F 50% 30.21 in 10.0 mi SSE 6.9 mph - N/A   Clear
10:35 AM 51.8 °F - 30.2 °F 44% 30.19 in 10.0 mi SE 11.5 mph - N/A   Clear
10:55 AM 51.8 °F - 30.2 °F 44% 30.18 in 10.0 mi South 9.2 mph - N/A   Clear
11:15 AM 53.6 °F - 32.0 °F 44% 30.17 in 10.0 mi South 5.8 mph - N/A   Clear
11:35 AM 55.4 °F - 33.8 °F 44% 30.15 in 10.0 mi SE 10.4 mph - N/A   Clear
11:55 AM 55.4 °F - 32.0 °F 41% 30.16 in 10.0 mi SSE 6.9 mph - N/A   Clear
12:15 PM 57.2 °F - 33.8 °F 41% 30.15 in 10.0 mi SSE 6.9 mph - N/A   Clear
12:35 PM 57.2 °F - 33.8 °F 41% 30.14 in 10.0 mi SSE 9.2 mph - N/A   Clear
12:55 PM 57.2 °F - 33.8 °F 41% 30.14 in 10.0 mi South 6.9 mph - N/A   Clear
1:15 PM 59.0 °F - 33.8 °F 39% 30.14 in 10.0 mi ESE 8.1 mph - N/A   Clear
1:35 PM 59.0 °F - 33.8 °F 39% 30.12 in 10.0 mi SSE 5.8 mph - N/A   Clear
1:55 PM 59.0 °F - 33.8 °F 39% 30.11 in 10.0 mi SSE 10.4 mph - N/A   Clear
2:15 PM 59.0 °F - 33.8 °F 39% 30.11 in 10.0 mi SSE 11.5 mph - N/A   Clear
2:35 PM 60.8 °F - 33.8 °F 36% 30.11 in 10.0 mi SE 9.2 mph - N/A   Clear
2:55 PM 60.8 °F - 33.8 °F 36% 30.10 in 10.0 mi South 6.9 mph - N/A   Clear
3:15 PM 60.8 °F - 33.8 °F 36% 30.11 in 10.0 mi SSE 8.1 mph - N/A   Clear
3:35 PM 59.0 °F - 33.8 °F 39% 30.10 in 10.0 mi SSE 5.8 mph - N/A   Clear
3:55 PM 60.8 °F - 33.8 °F 36% 30.10 in 10.0 mi SSE 6.9 mph - N/A   Clear
4:15 PM 60.8 °F - 33.8 °F 36% 30.10 in 10.0 mi SE 6.9 mph - N/A   Clear
4:35 PM 57.2 °F - 33.8 °F 41% 30.11 in 10.0 mi SE 6.9 mph - N/A   Clear
4:55 PM 57.2 °F - 33.8 °F 41% 30.11 in 10.0 mi SE 5.8 mph - N/A   Clear
5:15 PM 55.4 °F - 33.8 °F 44% 30.11 in 10.0 mi ESE 6.9 mph - N/A   Clear
5:35 PM 55.4 °F - 32.0 °F 41% 30.11 in 10.0 mi SE 5.8 mph - N/A   Clear
5:55 PM 53.6 °F - 32.0 °F 44% 30.12 in 10.0 mi SE 4.6 mph - N/A   Clear
6:15 PM 53.6 °F - 32.0 °F 44% 30.11 in 10.0 mi SE 5.8 mph - N/A   Clear
6:35 PM 53.6 °F - 32.0 °F 44% 30.11 in 10.0 mi SE 4.6 mph - N/A   Clear
6:55 PM 53.6 °F - 32.0 °F 44% 30.12 in 10.0 mi SSE 4.6 mph - N/A   Clear
7:15 PM 53.6 °F - 32.0 °F 44% 30.13 in 10.0 mi SE 4.6 mph - N/A   Clear
7:35 PM 53.6 °F - 30.2 °F 41% 30.14 in 10.0 mi SE 4.6 mph - N/A   Clear
7:55 PM 51.8 °F - 30.2 °F 44% 30.15 in 10.0 mi Calm Calm - N/A   Clear
8:15 PM 50.0 °F - 30.2 °F 47% 30.15 in 10.0 mi Calm Calm - N/A   Clear
8:35 PM 48.2 °F - 30.2 °F 50% 30.15 in 10.0 mi East 3.5 mph - N/A   Clear
8:55 PM 50.0 °F - 30.2 °F 47% 30.15 in 10.0 mi ESE 3.5 mph - N/A   Clear
9:15 PM 50.0 °F - 30.2 °F 47% 30.14 in 10.0 mi SE 6.9 mph - N/A   Clear
9:35 PM 51.8 °F - 32.0 °F 47% 30.14 in 10.0 mi SE 8.1 mph - N/A   Clear
9:55 PM 51.8 °F - 32.0 °F 47% 30.15 in 10.0 mi SE 5.8 mph - N/A   Clear
10:15 PM 51.8 °F - 30.2 °F 44% 30.16 in 10.0 mi SE 8.1 mph - N/A   Clear
10:35 PM 50.0 °F - 30.2 °F 47% 30.15 in 10.0 mi SE 8.1 mph - N/A   Clear
10:55 PM 50.0 °F - 32.0 °F 50% 30.15 in 10.0 mi SE 8.1 mph - N/A   Clear
11:15 PM 50.0 °F - 32.0 °F 50% 30.15 in 10.0 mi SSE 5.8 mph - N/A   Clear
11:35 PM 50.0 °F - 32.0 °F 50% 30.16 in 10.0 mi SE 4.6 mph - N/A   Clear
11:55 PM 48.2 °F - 32.0 °F 54% 30.16 in 10.0 mi Calm Calm - N/A   Clear